Weather History for Mineral Point, WI

Change the Weather History Date:

Sunday, November 25, 2012

  Actual Average (KLNR) Record (KLNR)
Temperature  
Mean Temperature 32 °F -  
Max Temperature 37 °F 40 °F 57 °F (1998)
Min Temperature 26 °F 25 °F 8 °F (2014)
Degree Days  
Heating Degree Days 34    
Moisture  
Dew Point 22 °F    
Average Humidity 68    
Maximum Humidity 80    
Minimum Humidity 52    
Precipitation  
Precipitation 0.00 in - - ()
Sea Level Pressure  
Sea Level Pressure 29.91 in    
Wind  
Wind Speed 6 mph (WNW)    
Max Wind Speed 12 mph    
Max Gust Speed 18 mph    
Visibility 10 miles    
Events      
Averages and records for this station are not official NWS values.
T = Trace of Precipitation, MM = Missing Value Source: NWS Daily Summary

Daily Weather History Graph

Daily Weather History Graph

Search for Another Location

Airport:

Trip Planner

Search our weather history database for the weather conditions in past years. The results will help you decide how hot, cold, wet, or windy it might be!

Date:

Astronomy

Nov. 25, 2012 Rise Set
Actual Time 7:05 AM CST 4:30 PM CST
Civil Twilight 6:34 AM CST 5:01 PM CST
Nautical Twilight 5:59 AM CST 5:36 PM CST
Astronomical Twilight 5:25 AM CST 6:10 PM CST
Moon 2:49 PM CST 4:17 AM CST
Length of Visible Light 10h 26m
Length of Day
9h 24m
Waxing Gibbous, 93% of the Moon is Illuminated
Nov 25
Waxing Gibbous
Nov 28
Full
Dec 6
Last Quarter
Dec 13
New
Dec 19
First Quarter

Hourly Weather History & Observations

Time (CST) Temp. Windchill Dew Point Humidity Pressure Visibility Wind Dir Wind Speed Gust Speed Precip Events Conditions
12:15 AM 30.2 °F 22.6 °F 21.2 °F 69% 29.85 in 10.0 mi South 8.1 mph - N/A   Scattered Clouds
12:35 AM 30.2 °F 22.6 °F 21.2 °F 69% 29.84 in 10.0 mi South 8.1 mph - N/A   Clear
12:55 AM 30.2 °F 23.4 °F 21.2 °F 69% 29.82 in 10.0 mi South 6.9 mph - N/A   Scattered Clouds
1:15 AM 30.2 °F 24.3 °F 21.2 °F 69% 29.82 in 10.0 mi South 5.8 mph - N/A   Mostly Cloudy
1:35 AM 30.2 °F 23.4 °F 21.2 °F 69% 29.82 in 10.0 mi South 6.9 mph - N/A   Overcast
1:55 AM 30.2 °F 23.4 °F 21.2 °F 69% 29.83 in 10.0 mi South 6.9 mph - N/A   Overcast
2:15 AM 30.2 °F 24.3 °F 21.2 °F 69% 29.82 in 10.0 mi SSW 5.8 mph - N/A   Scattered Clouds
2:35 AM 30.2 °F 24.3 °F 21.2 °F 69% 29.82 in 10.0 mi SSW 5.8 mph - N/A   Clear
2:55 AM 30.2 °F 24.3 °F 21.2 °F 69% 29.82 in 10.0 mi SSW 5.8 mph - N/A   Clear
3:15 AM 28.4 °F 23.3 °F 21.2 °F 74% 29.82 in 10.0 mi SW 4.6 mph - N/A   Clear
3:35 AM 28.4 °F 24.6 °F 21.2 °F 74% 29.81 in 10.0 mi SSW 3.5 mph - N/A   Clear
3:55 AM 28.4 °F 24.6 °F 21.2 °F 74% 29.81 in 10.0 mi SSW 3.5 mph - N/A   Clear
4:15 AM 28.4 °F 24.6 °F 21.2 °F 74% 29.81 in 10.0 mi SSW 3.5 mph - N/A   Clear
4:35 AM 28.4 °F 23.3 °F 21.2 °F 74% 29.81 in 10.0 mi SSW 4.6 mph - N/A   Clear
4:55 AM 28.4 °F 23.3 °F 21.2 °F 74% 29.80 in 10.0 mi SW 4.6 mph - N/A   Clear
5:35 AM 28.4 °F 23.3 °F 21.2 °F 74% 29.81 in 10.0 mi WSW 4.6 mph - N/A   Clear
5:55 AM 28.4 °F - 21.2 °F 74% 29.81 in 10.0 mi Calm Calm - N/A   Clear
6:15 AM 26.6 °F 22.6 °F 21.2 °F 80% 29.82 in 10.0 mi West 3.5 mph - N/A   Clear
6:35 AM 26.6 °F 22.6 °F 21.2 °F 80% 29.82 in 10.0 mi WNW 3.5 mph - N/A   Clear
6:55 AM 26.6 °F 22.6 °F 21.2 °F 80% 29.82 in 10.0 mi WNW 3.5 mph - N/A   Clear
7:15 AM 26.6 °F 20.0 °F 21.2 °F 80% 29.83 in 10.0 mi WNW 5.8 mph - N/A   Clear
7:35 AM 26.6 °F 19.1 °F 21.2 °F 80% 29.84 in 10.0 mi West 6.9 mph - N/A   Clear
7:55 AM 26.6 °F 21.2 °F 21.2 °F 80% 29.85 in 10.0 mi WNW 4.6 mph - N/A   Clear
8:15 AM 28.4 °F 22.2 °F 21.2 °F 74% 29.85 in 10.0 mi WNW 5.8 mph - N/A   Clear
8:35 AM 30.2 °F 24.3 °F 23.0 °F 75% 29.86 in 10.0 mi NW 5.8 mph - N/A   Clear
8:55 AM 30.2 °F 22.6 °F 23.0 °F 75% 29.87 in 10.0 mi NW 8.1 mph - N/A   Clear
9:15 AM 32.0 °F 23.6 °F 23.0 °F 69% 29.87 in 10.0 mi NW 10.4 mph - N/A   Clear
9:35 AM 32.0 °F 24.8 °F 23.0 °F 69% 29.88 in 10.0 mi NW 8.1 mph - N/A   Clear
9:55 AM 32.0 °F 23.6 °F 21.2 °F 64% 29.88 in 10.0 mi NNW 10.4 mph - N/A   Clear
10:15 AM 33.8 °F 27.0 °F 21.2 °F 60% 29.89 in 10.0 mi NNW 8.1 mph - N/A   Clear
10:35 AM 33.8 °F 27.0 °F 21.2 °F 60% 29.89 in 10.0 mi NW 8.1 mph - N/A   Clear
10:55 AM 35.6 °F 27.5 °F 21.2 °F 56% 29.89 in 10.0 mi NNW 11.5 mph - N/A   Clear
11:15 AM 35.6 °F 27.5 °F 23.0 °F 60% 29.89 in 10.0 mi NW 11.5 mph - N/A   Clear
11:35 AM 35.6 °F 28.0 °F 23.0 °F 60% 29.89 in 10.0 mi NW 10.4 mph - N/A   Clear
11:55 AM 37.4 °F 30.3 °F 23.0 °F 56% 29.89 in 10.0 mi NW 10.4 mph 16.1 mph N/A   Clear
12:15 PM 35.6 °F 28.6 °F 23.0 °F 60% 29.89 in 10.0 mi NW 9.2 mph 16.1 mph N/A   Clear
12:35 PM 37.4 °F 29.8 °F 23.0 °F 56% 29.89 in 10.0 mi NNW 11.5 mph 18.4 mph N/A   Clear
12:55 PM 37.4 °F 30.8 °F 23.0 °F 56% 29.89 in 10.0 mi NW 9.2 mph - N/A   Clear
1:15 PM 37.4 °F 31.4 °F 23.0 °F 56% 29.89 in 10.0 mi NW 8.1 mph - N/A   Clear
1:35 PM 37.4 °F 29.8 °F 21.2 °F 52% 29.89 in 10.0 mi WNW 11.5 mph - N/A   Clear
1:55 PM 37.4 °F 31.4 °F 21.2 °F 52% 29.89 in 10.0 mi NW 8.1 mph 16.1 mph N/A   Clear
2:15 PM 37.4 °F 31.4 °F 21.2 °F 52% 29.89 in 10.0 mi NW 8.1 mph - N/A   Clear
2:35 PM 37.4 °F 32.1 °F 21.2 °F 52% 29.89 in 10.0 mi WNW 6.9 mph - N/A   Clear
2:55 PM 37.4 °F 31.4 °F 21.2 °F 52% 29.91 in 10.0 mi NW 8.1 mph - N/A   Clear
3:15 PM 35.6 °F 28.0 °F 21.2 °F 56% 29.91 in 10.0 mi West 10.4 mph - N/A   Clear
3:35 PM 35.6 °F 30.7 °F 21.2 °F 56% 29.92 in 10.0 mi WNW 5.8 mph - N/A   Clear
3:55 PM 35.6 °F 29.9 °F 23.0 °F 60% 29.92 in 10.0 mi NW 6.9 mph - N/A   Clear
4:15 PM 33.8 °F 30.8 °F 23.0 °F 65% 29.93 in 10.0 mi WNW 3.5 mph - N/A   Clear
4:35 PM 33.8 °F 29.6 °F 23.0 °F 65% 29.93 in 10.0 mi NW 4.6 mph - N/A   Clear
4:55 PM 32.0 °F 28.7 °F 23.0 °F 69% 29.93 in 10.0 mi WNW 3.5 mph - N/A   Clear
5:15 PM 32.0 °F 28.7 °F 23.0 °F 69% 29.95 in 10.0 mi West 3.5 mph - N/A   Clear
5:35 PM 32.0 °F - 23.0 °F 69% 29.94 in 10.0 mi Calm Calm - N/A   Clear
5:55 PM 32.0 °F 28.7 °F 23.0 °F 69% 29.96 in 10.0 mi SW 3.5 mph - N/A   Clear
6:15 PM 32.0 °F - 23.0 °F 69% 29.96 in 10.0 mi Calm Calm - N/A   Clear
6:35 PM 32.0 °F - 23.0 °F 69% 29.97 in 10.0 mi Calm Calm - N/A   Clear
6:55 PM 32.0 °F 28.7 °F 23.0 °F 69% 29.98 in 10.0 mi WNW 3.5 mph - N/A   Clear
7:15 PM 32.0 °F 28.7 °F 23.0 °F 69% 29.98 in 10.0 mi WNW 3.5 mph - N/A   Clear
7:35 PM 32.0 °F 27.5 °F 23.0 °F 69% 29.99 in 10.0 mi West 4.6 mph - N/A   Clear
7:55 PM 32.0 °F 27.5 °F 23.0 °F 69% 29.99 in 10.0 mi West 4.6 mph - N/A   Clear
8:15 PM 32.0 °F 28.7 °F 23.0 °F 69% 30.00 in 10.0 mi West 3.5 mph - N/A   Clear
8:35 PM 32.0 °F 27.5 °F 23.0 °F 69% 30.01 in 10.0 mi West 4.6 mph - N/A   Clear
8:55 PM 32.0 °F 28.7 °F 23.0 °F 69% 30.02 in 10.0 mi WNW 3.5 mph - N/A   Clear
9:15 PM 32.0 °F 28.7 °F 23.0 °F 69% 30.03 in 10.0 mi WNW 3.5 mph - N/A   Clear
9:35 PM 32.0 °F 27.5 °F 23.0 °F 69% 30.04 in 10.0 mi WNW 4.6 mph - N/A   Clear
9:55 PM 32.0 °F 26.4 °F 23.0 °F 69% 30.05 in 10.0 mi NW 5.8 mph - N/A   Clear
10:15 PM 30.2 °F 23.4 °F 23.0 °F 75% 30.06 in 10.0 mi NNW 6.9 mph - N/A   Clear
10:35 PM 30.2 °F 23.4 °F 23.0 °F 75% 30.07 in 10.0 mi NNW 6.9 mph - N/A   Mostly Cloudy
10:55 PM 30.2 °F 23.4 °F 23.0 °F 75% 30.07 in 10.0 mi NNW 6.9 mph - N/A   Mostly Cloudy
11:15 PM 28.4 °F 23.3 °F 23.0 °F 80% 30.08 in 10.0 mi North 4.6 mph - N/A   Scattered Clouds
11:35 PM 28.4 °F - 21.2 °F 74% 30.09 in 10.0 mi Calm Calm - N/A   Clear
11:55 PM 26.6 °F 21.2 °F 21.2 °F 80% 30.09 in 10.0 mi North 4.6 mph - N/A   Clear